User: anonymous   Login
Location: Newark
(46.9000°N, 28.3500°E)
Time: 10:13:24
(UTC+00:00)
Language:

Transit 2A Rocket - Orbit

View from above orbital plane
View from above orbital plane
View from above satellite
View from above satellite

Ground track
Ground track

The orbit data is extracted from the following two-line orbital elements,

1    47U 60007C   19231.41313718 -.00000073 +00000-0 +86541-5 0  9998
2    47 066.6638 245.2456 0226380 166.9296 193.7814 14.42045866090985
Epoch (UTC): 19 August 2019 09:54:55
Eccentricity: 0.0226380
inclination: 66.6638°
perigee height: 590 km
apogee height: 913 km
right ascension of ascending node: 245.2456°
argument of perigee: 166.9296°
revolutions per day: 14.42045866
mean anomaly at epoch: 193.7814°
orbit number at epoch: 9098

The dashed part of the orbit path shows where the satellite is in the earth's shadow,  

DLR